Regional Weather Roundup
Issued by NWS

Home | Current Version | Previous Version | Graphics & Text | Print | Product List | Glossary Off
Versions: 1 2 3 4 5 6 7 8 9 10 11 12 13 14 15 16 17 18 19 20 21 22 23 24 25 26 27 28 29 30 31 32 33 34 35 36 37 38 39 40 41 42 43 44 45 46 47 48 49 50

000
ASUS43 KTOP 260808
RWRKS

WEATHER ROUNDUP FOR KANSAS
NATIONAL WEATHER SERVICE GOODLAND KS
200 AM CST FRI DEC 26 2014

NOTE:  "FAIR" INDICATES FEW OR NO CLOUDS BELOW 12,000 FEET WITH NO
SIGNIFICANT WEATHER AND/OR OBSTRUCTIONS TO VISIBILITY.

KSZ001>006-013>018-027>032-041>047-260900-
NORTHWEST KANSAS

CITY           SKY/WX    TMP DP  RH WIND       PRES   REMARKS
GOODLAND       CLOUDY    27  24  89 N21       29.81S WCI  13
HAYS           CLOUDY    32  21  64 N16G23    29.81R WCI  21
HILL CITY      CLOUDY    32  26  78 N18       29.84R WCI  20
RUSSELL        CLOUDY    31  29  92 N20       29.80R WCI  19
$$

KSZ061>065-074>080-084>089-260900-
SOUTHWEST KANSAS

CITY           SKY/WX    TMP DP  RH WIND       PRES   REMARKS
DODGE CITY     CLOUDY    29  24  82 N23       29.79R WCI  15
ELKHART          N/A     29  21  72 N12         N/A  WCI  19
GARDEN CITY    CLOUDY    28  25  88 N20       29.79S WCI  15
GREAT BEND     CLEAR     30  23  74 N12G18    29.81R WCI  21
LIBERAL        CLEAR     28  19  69 N17       29.79R WCI  16
PRATT          CLEAR     32  27  80 N12       29.79R WCI  23
$$

KSZ066>073-081>083-090>101-260900-
SOUTHEAST KANSAS

CITY           SKY/WX    TMP DP  RH WIND       PRES   REMARKS
CHANUTE        MOCLDY    45  32  60 S13       29.84R
COFFEYVILLE    CLEAR     48  32  53 S18G25    29.86R
HUTCHINSON     CLEAR     36  27  69 S6        29.78R
MEDICINE LODGE   N/A     39  29  67 S5        29.77R
NEWTON         CLEAR     45  27  49 SW15      29.80R
PARSONS        PTCLDY    47  33  58 S13G21    29.87R
WICHITA INTL   MOCLDY    46  30  53 S12       29.78R
WICHITA JABRA  PTCLDY    47  29  49 S17       29.77R
WICHITA MCCONL MOCLDY    47  30  52 S13       29.79R
WINFIELD       CLOUDY    49  31  49 S17       29.80R
$$

KSZ007>012-019>026-033>040-048>060-102>105-260900-
NORTHEAST KANSAS

CITY           SKY/WX    TMP DP  RH WIND       PRES   REMARKS
CONCORDIA      CLEAR     31  29  92 N12       29.77R WCI  22
EMPORIA        MOCLDY    45  30  55 S14       29.79R
LAWRENCE       MOCLDY    46  31  55 S8        29.82R
MANHATTAN      CLEAR     41  31  67 SW8       29.77R
MARYSVILLE     CLEAR     37  30  75 S3        29.75R
OLATHE IND     CLOUDY    47  31  53 S17       29.82R
OLATHE EXE     CLOUDY    47  31  53 S13       29.82R
SALINA         CLEAR     34  27  75 W10       29.79R WCI  26
TOPEKA BILLARD PTCLDY    47  31  53 S7        29.80R
TOPEKA FORBES  MOCLDY    46  31  55 S9        29.79R
$$



USA.gov is the U.S. government's official web portal to all federal, state and local government web resources and services.